Temp_Advection
nan nan nan nan nan nan nan nan nan nan nan nan nan nan nan nan nan nan nan nan nan nan nan nan nan nan nan nan nan nan nan nan nan nan nan nan nan nan nan nan nan nan nan nan nan nan nan
nan 0 0 0 0 0 0 0 0 0 -0 -0 -0 0 -0 -0 -0 -0 -0 -0 0 0 0 0 0 0 -0 -0 -0 0 0 0 -0 -0 -0 -0 -0 -0 -0 -0 0 0 -0 0 0 0 nan
nan 0 0 0 0 0 0 0 0 0 0 0 0 -0 0 -0 -0 -0 -0 -0 0 0 0 0 0 0 -0 -0 -0 -0 0 -0 -0 -0 -0 -0 0 -0 -0 0 -0 -0 -0 0 -0 0 nan
nan 0 0 0 -0 0 0 0 0 0 0 0 0 0 0 -0 -0 0 0 0 -0 0 -0 0 0 -0 -0 -0 -0 -0 -0 -0 -0 -0 -0 -0 -0 -0 -0 0 -0 -0 -0 0 -0 0 nan
nan 0 0 0 -0 -0 0 0 0 0 0 0 0 0 0 0 0 0 0 0 0 0 -0 -0 0 -0 -0 -0 -0 -0 -0 -0 -0 -0 -0 -0 -0 0 0 -0 -0 -0 0 -0 -0 0 nan
nan 0 0 0 0 0 0 0 0 0 0 0 0 0 0 0 0 0 0 0 0 0 0 0 0 0 0 -0 -0 -0 -0 -0 -0 -0 0 0 0 -0 -0 0 -0 -0 -0 -0 0 0 nan
nan 0 0 0 0 0 0 0 0 -0 0 0 0 0 0 -0 0 0 0 0 0 0 0 -0 0 0 0 0 -0 -0 -0 0 -0 0 0 0 -1 0 -0 -0 -0 -0 -0 -0 0 -0 nan
nan 0 0 -0 0 0 0 0 0 0 -0 -0 0 0 0 0 0 0 0 0 0 0 0 0 -0 0 -0 0 0 -0 -0 -0 -0 0 -0 -0 0 -0 -0 -0 0 -0 0 0 0 -0 nan
nan 0 0 0 0 0 0 -0 -0 0 0 -0 -0 0 0 0 0 0 0 -0 -0 0 0 -0 0 0 0 -0 -0 -0 -0 -0 0 -0 -0 -0 0 -0 -0 -0 0 -0 0 0 0 -0 nan
nan 0 0 0 0 0 0 0 0 0 0 0 -0 -0 0 0 0 -0 -0 -0 -0 0 -0 -1 0 0 0 -0 0 0 -0 -0 -0 -0 0 0 -0 0 -0 -0 -0 -0 0 0 -0 -0 nan
nan -0 0 0 0 0 0 0 1 0 0 -0 0 -0 0 0 0 0 0 0 0 0 0 -1 -0 0 -0 -0 -0 0 0 -0 -0 0 -0 0 -0 -0 -0 -0 -0 0 -0 -0 -0 -0 nan
nan 0 0 0 0 0 -0 0 0 0 -0 -0 -0 -0 0 0 0 0 0 0 0 -1 -0 -0 -0 -0 -0 -0 0 0 0 -0 -0 -0 -1 0 -0 -0 0 0 0 0 -0 -1 -0 -0 nan
nan 0 -0 0 0 0 0 0 0 0 0 0 -0 -0 -0 -0 0 0 0 0 -1 1 -0 0 -0 0 -0 -0 0 -0 -0 -0 -0 -0 -0 -0 -0 -0 0 0 -0 -0 -0 -0 0 0 nan
nan 0 0 -0 0 0 0 0 0 0 0 0 0 0 0 -0 0 -0 -0 -1 0 -0 -0 -0 -0 0 0 0 0 -0 -0 -0 -0 -0 -0 0 -0 0 -0 0 0 -0 -0 -0 0 0 nan
nan 0 0 0 -0 -0 -0 0 0 0 0 0 -0 -0 0 0 -0 -0 -0 -0 -0 -0 -0 -0 -0 0 0 0 -0 -0 -0 -0 0 0 -0 -0 0 -0 0 0 0 -0 0 -0 -0 0 nan
nan -0 0 0 0 -0 -0 0 0 0 0 0 0 0 0 -0 -0 -0 -1 0 0 0 -0 -0 -0 -0 -0 -0 -0 -0 -0 0 -0 0 -0 -0 -0 -0 -0 -0 -0 0 -0 -0 0 0 nan
nan -0 -0 -0 0 0 0 -0 0 0 0 0 0 -0 0 0 -0 -1 -0 0 0 0 0 -0 -0 -0 0 0 -0 -0 0 0 -0 -0 0 -0 -0 0 -0 0 0 0 -0 -0 -0 0 nan
nan -0 -0 -0 -0 0 0 0 -0 0 0 0 -0 -0 0 0 -1 -0 0 0 0 -0 -0 -0 0 -0 -0 -0 -0 -0 0 -0 -0 -0 -0 -0 -0 0 0 0 -0 -0 0 -0 0 0 nan
nan -0 -0 -0 -0 -0 -0 -0 0 -0 -0 -0 -0 -0 0 -0 -1 0 0 0 0 -0 0 0 -0 0 0 0 -0 -0 -0 -0 -0 -0 0 -0 -0 0 -0 0 -0 0 0 -0 -0 0 nan
nan -0 -0 -0 -0 -0 -0 -0 -0 -0 -0 -0 -0 -0 0 -1 -1 -0 0 0 0 0 0 -0 -0 0 -0 -0 -0 0 -0 -0 -0 0 0 -0 0 -0 0 0 -0 -0 -0 0 -0 -0 nan
nan -0 -0 -0 -0 -0 -0 -0 -0 -0 -0 -0 -0 -0 -0 -0 -0 0 0 0 0 0 0 0 0 0 -0 -0 -0 -0 -0 0 0 -0 -0 0 -0 0 -0 -0 -0 0 0 0 0 -1 nan
nan -0 -0 -0 -0 -0 -0 -0 -0 -0 -0 -0 -0 -0 -0 0 -0 0 -0 0 0 0 0 -0 -0 -0 0 0 0 0 -0 -0 0 -0 -0 -0 -0 0 -0 0 0 -0 0 -0 -0 0 nan
nan -0 -0 -0 -0 -0 -0 -0 -0 -0 -0 -0 -0 -0 0 -0 -0 -0 -0 -0 0 0 0 0 0 0 0 0 0 -0 0 0 0 -0 -0 -0 -0 0 -0 -0 -0 0 -0 -0 -0 -0 nan
nan -0 -0 -0 -0 -0 -0 -0 -0 -0 -0 -0 -0 -0 -0 0 0 -0 -0 0 0 0 -0 -0 0 0 0 0 0 0 0 0 0 0 -0 -0 -0 -0 -0 -0 -0 -0 -0 -0 -0 -0 nan
nan -0 -0 -0 -0 -0 -0 -0 -0 -0 -0 -0 -0 -0 0 0 -0 -0 0 0 0 0 0 -0 0 0 -0 -0 -0 -0 -0 0 -0 -0 0 0 0 -0 0 0 -1 -0 -0 0 -0 0 nan
nan -1 -1 -0 -0 -0 -0 -0 -0 -0 -0 -0 0 0 0 -0 -0 -0 0 0 0 0 -0 -0 0 0 0 -0 0 0 -0 0 0 0 -0 -0 0 0 0 -0 -0 0 0 0 -0 0 nan
nan -0 -0 -0 -0 -0 -0 -0 -0 -0 -0 -0 0 0 0 0 -0 0 0 0 -0 -0 0 -0 0 0 0 -0 0 0 -0 0 0 0 0 -0 0 0 0 -0 -1 -0 0 0 0 0 nan
nan -0 -0 -0 -0 0 0 -0 -0 -0 0 0 0 0 0 0 -0 0 0 0 0 0 -0 0 -0 0 -0 0 0 0 0 -0 0 -0 -0 -0 -0 -0 -0 -0 -1 0 0 0 0 0 nan
nan nan nan nan nan nan nan nan nan nan nan nan nan nan nan nan nan nan nan nan nan nan nan nan nan nan nan nan nan nan nan nan nan nan nan nan nan nan nan nan nan nan nan nan nan nan nan
Wind_Speed
22 20 15 11 7 4 4 5 7 9 14 16 19 19 21 22 16 12 7 4 2 4 5 10 11 13 16 11 3 4 5 11 13 10 14 11 9 8 3 6 8 3 3 2 3 4 7
22 22 19 15 9 5 4 4 5 5 6 10 12 14 15 18 19 18 14 7 3 9 8 11 12 16 16 6 3 1 2 10 11 12 17 14 7 5 3 6 7 9 6 4 1 3 3
21 23 23 19 12 8 5 5 5 5 4 5 7 9 11 11 9 12 19 21 9 11 8 11 14 18 15 10 4 3 1 8 11 14 17 16 2 2 2 3 7 16 6 2 1 2 1
20 22 24 22 16 11 7 5 6 5 5 5 6 6 8 7 4 3 8 20 18 17 10 10 7 10 5 9 7 5 7 9 11 11 11 11 3 5 3 4 5 4 5 4 2 2 1
20 21 22 24 21 14 10 6 5 6 6 6 5 5 4 4 5 4 4 4 5 11 6 8 4 4 2 14 2 7 11 10 12 10 8 8 4 2 3 5 5 5 4 3 3 4 1
20 21 21 22 24 21 15 10 5 5 6 6 6 6 4 2 4 4 2 3 3 5 2 4 5 3 3 5 6 7 9 10 11 10 9 6 2 3 4 5 6 4 3 2 4 4 2
19 20 21 22 22 23 21 14 8 5 4 5 5 5 4 5 4 5 5 5 4 2 6 1 4 4 5 5 8 6 5 15 10 6 3 2 6 3 3 4 4 1 2 3 1 1 2
18 20 21 22 23 23 24 20 11 5 5 4 4 4 3 7 8 8 7 5 7 2 3 3 6 7 8 3 6 5 8 7 5 3 3 6 3 2 2 1 2 2 4 2 1 1 2
17 19 20 22 24 25 25 25 16 4 5 5 4 3 2 2 3 5 6 5 1 3 1 5 4 5 4 7 4 6 6 5 4 3 3 6 1 3 1 6 4 3 3 5 3 2 0
17 18 19 20 22 25 27 27 22 6 3 5 4 5 5 3 2 5 4 5 5 3 4 8 7 6 4 4 4 4 3 4 4 6 5 5 4 1 4 5 1 2 2 2 6 4 3
16 17 19 20 21 23 25 28 25 9 6 8 7 3 5 6 4 6 4 4 3 2 5 6 4 3 5 4 4 3 5 3 4 3 4 2 3 5 6 1 1 2 2 3 3 4 4
14 16 18 20 22 23 25 27 25 11 3 7 10 14 3 4 6 6 5 3 1 5 1 4 2 2 3 4 3 3 4 8 6 6 7 3 2 3 2 1 2 2 4 7 5 4 2
13 16 18 20 23 25 26 27 26 14 3 4 5 14 4 1 2 4 2 2 5 6 4 3 2 2 3 3 3 3 4 5 2 5 3 5 4 3 3 3 4 6 6 3 3 3 5
13 15 17 19 22 24 26 27 28 18 9 2 1 8 9 3 1 2 3 4 7 3 1 2 2 1 3 1 2 2 3 2 4 4 4 5 4 2 4 3 4 2 4 5 6 3 4
13 15 16 18 20 22 23 25 27 21 12 6 1 9 12 8 6 4 1 5 4 2 1 3 2 3 2 1 3 4 3 1 1 2 4 4 2 2 2 2 2 3 1 2 6 3 3
12 14 16 18 19 20 22 24 26 24 11 9 3 2 12 8 6 3 5 2 2 3 5 2 0 1 3 2 2 3 2 2 1 0 1 4 5 1 1 1 1 1 2 3 3 2 4
11 12 15 16 18 20 21 23 24 25 15 8 7 3 15 8 3 7 4 2 2 5 4 2 4 2 1 2 2 2 2 2 3 4 3 1 3 2 2 4 6 1 0 3 3 4 4
11 13 14 16 16 18 20 21 23 23 22 9 4 4 14 9 4 3 3 4 3 1 4 2 2 4 4 6 4 2 3 1 3 2 2 1 4 3 1 1 1 1 2 4 4 4 0
11 13 14 15 15 17 18 18 19 21 20 13 3 3 10 9 4 4 1 1 0 1 1 2 2 3 3 3 2 3 3 2 5 4 2 1 1 2 5 4 3 3 4 4 4 2 6
10 11 12 14 14 15 16 17 17 17 16 10 3 3 6 8 6 5 2 3 2 2 2 2 1 1 3 3 4 2 1 1 3 2 2 2 2 4 5 2 4 3 4 4 4 3 3
10 10 10 11 13 13 14 15 15 15 13 7 5 2 3 3 4 3 3 1 1 3 1 2 3 2 1 1 2 3 2 0 1 1 2 3 4 2 4 6 4 4 5 8 9 7 7
10 10 10 10 11 12 13 14 14 13 11 6 3 2 1 1 4 4 4 3 3 2 1 2 1 2 1 1 1 5 3 3 3 1 1 2 1 2 4 3 5 6 8 10 11 6 10
8 8 9 10 11 11 12 13 12 11 10 5 4 2 1 1 1 2 2 2 3 3 3 3 4 1 1 3 1 0 0 0 0 5 3 2 3 2 3 4 5 8 7 11 6 4 8
9 8 9 11 12 12 11 10 10 10 8 5 3 1 1 2 1 3 2 1 2 2 3 2 2 2 2 3 3 3 4 4 4 4 5 5 4 3 3 2 2 5 1 2 7 2 4
11 10 10 11 12 11 10 9 8 8 6 4 2 0 1 1 3 3 3 3 2 2 2 2 3 1 3 3 3 2 3 1 1 2 5 4 4 1 2 3 6 6 2 1 3 2 1
13 12 11 11 11 11 10 8 7 6 6 4 3 2 2 3 5 3 3 4 4 3 3 3 3 2 1 2 2 2 4 3 2 1 5 4 3 3 3 3 6 3 1 1 1 4 2
15 13 12 12 11 11 11 9 7 7 6 5 4 4 4 4 5 5 4 4 4 3 2 2 3 4 4 2 2 3 4 2 3 5 5 3 0 5 4 3 7 4 3 1 4 4 9
16 15 13 12 12 12 12 11 10 8 7 6 6 6 6 5 6 7 7 6 4 5 4 5 2 2 2 3 3 3 3 3 1 3 5 6 6 4 3 3 8 5 2 5 4 12 15
20 17 16 14 14 14 13 12 11 10 9 8 8 8 8 8 5 7 9 8 9 7 3 7 2 4 6 3 2 2 3 1 3 3 2 3 5 4 8 5 0 4 3 4 11 13 11
Wind_Direction
27 23 13 14 28 29 17 23 22 39 49 50 49 53 55 50 44 37 35 14 75 210 194 183 183 182 170 189 186 89 122 178 195 197 201 191 180 180 193 196 158 173 149 107 116 120 119
31 25 19 12 22 31 24 7 4 18 41 49 42 38 46 54 46 55 33 352 188 135 140 167 163 171 169 189 180 103 218 196 195 202 193 187 177 202 302 207 164 183 130 121 157 144 127
33 28 25 23 18 21 32 5 353 343 341 350 6 12 15 45 52 52 32 51 109 173 100 142 162 171 182 183 191 209 176 189 197 193 189 192 151 231 222 136 140 134 94 47 261 204 156
33 29 29 30 23 18 19 16 3 338 319 324 331 344 357 21 40 18 51 56 71 80 114 113 132 170 209 178 205 219 166 170 172 188 186 187 205 258 231 129 93 83 69 123 274 192 197
31 30 28 31 28 17 9 9 10 356 335 316 307 322 351 356 38 28 8 40 71 71 90 112 98 179 186 196 198 173 157 154 154 156 156 174 208 217 124 96 53 14 166 180 306 222 128
31 29 25 26 29 25 12 353 351 6 351 341 327 291 291 327 355 27 355 30 77 96 339 360 59 71 139 162 144 148 142 155 151 150 157 175 149 70 38 74 182 180 172 199 210 228 180
29 27 26 23 24 21 22 11 347 337 354 350 343 312 259 233 251 295 310 323 357 51 97 257 349 31 113 132 153 150 191 153 163 159 131 134 76 141 181 174 137 182 183 174 295 218 164
27 26 24 23 19 18 16 16 7 6 328 328 338 335 306 251 251 262 261 284 317 42 340 60 100 110 115 101 120 133 145 166 153 146 116 37 101 234 290 327 45 25 173 158 338 105 107
24 28 22 21 17 14 14 10 7 21 25 343 294 270 315 324 241 244 247 281 301 318 94 13 58 93 83 123 100 158 191 191 140 87 91 119 165 316 119 46 101 58 185 168 174 104 316
19 21 23 22 18 13 11 10 4 13 50 18 337 254 225 232 229 203 231 237 287 303 71 329 358 22 48 94 75 135 159 173 55 131 114 90 326 77 86 81 350 139 302 107 109 95 217
16 17 16 17 20 15 12 11 10 12 75 67 47 355 230 221 254 237 274 278 291 185 64 294 333 54 39 76 128 49 64 126 106 93 103 228 28 66 76 93 307 140 27 61 89 98 59
18 15 14 12 13 14 13 12 14 13 92 107 47 17 265 226 253 273 297 294 158 44 317 348 328 1 57 32 40 52 89 84 112 71 36 102 69 60 103 62 66 115 65 42 54 71 22
16 11 11 11 9 9 11 11 13 14 340 260 19 19 31 184 203 243 253 189 35 83 296 332 1 24 82 17 43 56 31 25 116 89 20 13 354 358 53 80 26 66 57 6 357 4 216
6 11 8 8 11 10 10 13 12 19 16 330 302 27 32 54 207 103 129 56 69 212 265 310 310 359 92 24 37 56 81 48 32 68 107 136 330 43 353 61 163 119 143 155 203 197 254
0 2 2 6 10 12 12 13 15 16 24 26 33 33 29 56 74 75 55 51 184 231 338 350 324 83 27 54 126 92 62 163 265 5 131 135 18 319 43 24 82 165 204 160 104 10 43
358 359 1 0 6 9 11 12 14 16 15 25 9 16 32 34 32 41 77 82 354 349 339 336 327 176 149 189 122 107 164 253 271 264 239 190 88 356 339 24 52 150 161 63 0 168 253
354 354 357 360 2 1 8 7 12 13 14 14 31 51 356 345 18 69 104 139 23 357 353 338 352 344 104 143 126 110 179 328 5 326 355 104 94 278 51 202 179 101 235 65 125 146 178
348 348 351 353 359 360 359 2 2 9 13 8 45 45 6 353 31 38 122 169 168 329 7 0 62 17 20 12 29 79 154 360 351 319 103 14 118 150 177 305 360 209 201 151 127 224 136
339 344 346 345 353 357 359 1 1 2 7 13 28 30 13 25 65 3 339 44 34 82 144 101 63 74 23 56 67 74 60 357 13 38 72 45 5 56 351 356 357 218 199 162 123 100 204
332 336 339 342 348 353 359 3 6 4 7 18 28 17 34 48 82 122 65 0 353 346 331 320 207 142 121 56 32 115 70 347 18 73 78 90 115 163 188 200 130 207 207 198 137 124 183
314 321 328 336 342 350 353 359 4 5 8 16 36 95 47 330 359 81 130 113 16 339 356 328 353 31 55 98 52 146 154 174 13 49 75 113 198 150 240 231 214 220 194 186 197 197 184
300 303 311 322 332 339 345 350 358 6 8 26 67 57 92 37 324 338 338 178 157 201 67 338 19 308 12 160 242 208 155 199 208 343 125 17 286 90 304 303 224 265 236 215 226 224 249
293 291 301 312 319 325 332 340 348 0 16 46 45 50 349 40 46 63 252 297 271 169 193 189 166 128 227 183 152 325 202 182 267 152 173 107 119 75 277 359 346 296 236 199 194 212 207
296 290 296 302 307 311 316 326 336 348 4 30 36 21 124 275 134 196 204 227 223 244 310 286 246 162 191 197 257 244 254 247 210 195 164 144 134 143 242 19 218 240 90 162 202 221 211
283 283 288 294 297 297 302 311 322 330 336 336 347 359 195 227 229 266 204 195 202 274 264 243 247 295 307 333 18 20 340 17 125 56 170 166 136 191 208 216 295 301 57 163 185 223 339
280 283 282 283 287 287 288 294 305 315 318 302 282 260 211 157 240 212 224 205 188 199 321 227 230 235 215 90 76 221 234 256 263 304 19 59 69 139 146 199 236 222 209 46 10 286 92
277 280 281 278 275 278 279 283 288 293 296 286 264 249 226 249 229 219 205 195 184 169 178 226 189 172 179 101 171 200 254 185 196 186 170 139 127 206 215 261 284 239 177 117 122 235 152
263 271 274 271 266 265 271 275 278 285 284 268 259 248 230 237 258 232 236 225 204 203 163 160 100 228 77 159 167 222 207 253 275 177 183 172 155 200 156 206 275 153 111 176 167 146 157
254 257 261 261 264 262 264 272 276 278 279 265 245 244 244 242 251 224 233 239 237 232 232 199 218 170 181 119 203 155 218 197 177 242 127 240 195 187 193 216 337 199 250 230 163 169 177
Height
1532 1528 1525 1521 1520 1519 1518 1517 1515 1513 1511 1507 1504 1500 1498 1496 1493 1491 1489 1488 1486 1488 1489 1490 1492 1495 1497 1500 1498 1498 1498 1501 1504 1507 1509 1512 1515 1516 1517 1517 1519 1521 1522 1522 1522 1521 1522
1533 1529 1525 1522 1519 1518 1517 1516 1514 1513 1511 1509 1506 1503 1501 1499 1497 1494 1492 1487 1487 1488 1488 1489 1491 1494 1497 1499 1497 1497 1498 1500 1503 1505 1508 1512 1514 1515 1516 1516 1518 1518 1521 1523 1523 1523 1522
1535 1531 1526 1523 1520 1518 1517 1515 1514 1514 1512 1510 1507 1505 1503 1502 1499 1497 1494 1488 1487 1488 1490 1490 1492 1494 1496 1498 1496 1497 1497 1499 1502 1505 1508 1511 1513 1515 1515 1514 1516 1518 1524 1524 1524 1524 1524
1537 1533 1529 1524 1521 1519 1517 1514 1514 1513 1512 1510 1507 1505 1504 1503 1502 1499 1498 1496 1493 1492 1492 1492 1495 1495 1496 1496 1497 1497 1497 1499 1501 1504 1508 1511 1513 1514 1514 1514 1516 1521 1525 1532 1524 1524 1524
1538 1535 1531 1527 1523 1520 1517 1515 1513 1512 1510 1509 1507 1506 1505 1504 1502 1501 1499 1498 1497 1496 1496 1496 1496 1496 1495 1495 1497 1496 1497 1500 1502 1506 1508 1511 1513 1512 1512 1517 1526 1527 1535 1530 1528 1524 1524
1540 1536 1533 1529 1525 1521 1517 1515 1513 1510 1509 1508 1507 1506 1506 1504 1503 1501 1499 1498 1498 1497 1496 1497 1496 1498 1496 1496 1497 1498 1499 1501 1504 1506 1510 1511 1511 1515 1518 1524 1540 1531 1529 1528 1528 1525 1526
1541 1538 1534 1531 1526 1522 1517 1513 1512 1511 1508 1506 1506 1505 1505 1502 1501 1501 1500 1499 1501 1500 1499 1496 1497 1495 1495 1497 1498 1500 1500 1502 1505 1507 1510 1509 1519 1527 1519 1519 1521 1522 1526 1526 1526 1525 1527
1542 1539 1535 1532 1528 1523 1518 1513 1510 1509 1508 1506 1505 1504 1503 1501 1501 1501 1501 1500 1500 1502 1498 1496 1496 1496 1497 1497 1499 1501 1503 1505 1505 1509 1509 1515 1522 1518 1518 1518 1519 1523 1525 1528 1527 1526 1529
1542 1539 1536 1533 1529 1524 1519 1514 1509 1507 1506 1505 1504 1504 1503 1501 1501 1501 1502 1502 1501 1500 1499 1496 1496 1497 1498 1499 1500 1502 1504 1504 1505 1509 1511 1519 1520 1517 1517 1523 1522 1529 1527 1529 1525 1527 1528
1543 1540 1537 1533 1529 1525 1520 1515 1509 1506 1505 1504 1502 1502 1502 1502 1504 1502 1502 1502 1501 1500 1507 1503 1498 1497 1499 1499 1502 1502 1503 1505 1506 1515 1515 1521 1519 1517 1520 1527 1528 1524 1528 1524 1526 1534 1549
1544 1541 1538 1535 1530 1525 1520 1515 1510 1505 1504 1504 1502 1501 1500 1501 1501 1501 1502 1501 1500 1501 1535 1505 1500 1500 1499 1501 1503 1503 1503 1503 1508 1511 1515 1524 1522 1521 1524 1528 1527 1527 1527 1527 1530 1539 1543
1544 1541 1538 1535 1531 1526 1521 1516 1511 1506 1504 1503 1503 1501 1499 1499 1500 1500 1500 1500 1501 1516 1535 1509 1502 1501 1502 1501 1502 1502 1502 1504 1508 1513 1516 1523 1523 1524 1526 1527 1526 1528 1531 1536 1543 1551 1569
1544 1541 1538 1535 1531 1527 1522 1516 1511 1507 1504 1503 1503 1501 1498 1498 1498 1498 1499 1500 1514 1527 1511 1509 1506 1503 1503 1505 1504 1504 1508 1511 1515 1528 1537 1527 1528 1526 1526 1527 1528 1531 1541 1569 1562 1574 1561
1544 1541 1538 1534 1531 1527 1522 1517 1511 1507 1504 1502 1503 1502 1499 1497 1497 1498 1500 1503 1520 1513 1511 1506 1506 1504 1506 1506 1507 1507 1511 1517 1514 1516 1534 1539 1545 1529 1529 1530 1532 1533 1540 1559 1552 1561 1556
1544 1542 1538 1534 1530 1526 1522 1518 1513 1508 1506 1503 1503 1503 1500 1498 1498 1499 1501 1522 1517 1513 1511 1509 1506 1507 1508 1506 1507 1510 1516 1518 1516 1515 1520 1527 1532 1530 1530 1531 1533 1534 1544 1538 1552 1557 1556
1543 1541 1538 1536 1531 1527 1523 1518 1514 1509 1506 1505 1504 1503 1502 1500 1499 1498 1504 1519 1517 1514 1513 1511 1507 1504 1509 1507 1508 1510 1513 1515 1514 1513 1513 1516 1532 1532 1532 1532 1533 1533 1536 1546 1558 1543 1542
1542 1539 1537 1535 1532 1528 1523 1519 1515 1511 1507 1505 1504 1504 1504 1501 1499 1499 1518 1518 1516 1514 1514 1513 1512 1507 1506 1506 1506 1510 1515 1516 1515 1514 1513 1513 1520 1537 1534 1535 1534 1538 1538 1540 1543 1548 1544
1540 1540 1537 1533 1531 1529 1525 1520 1515 1512 1509 1506 1504 1506 1504 1502 1502 1508 1514 1512 1512 1512 1511 1513 1512 1513 1512 1513 1511 1512 1514 1516 1516 1515 1515 1517 1525 1547 1530 1531 1530 1531 1530 1535 1546 1538 1551
1538 1537 1536 1534 1530 1527 1525 1522 1518 1512 1509 1507 1507 1506 1506 1502 1514 1519 1514 1513 1513 1512 1512 1510 1512 1513 1512 1515 1515 1516 1518 1519 1517 1517 1518 1518 1526 1548 1534 1535 1531 1530 1529 1530 1537 1544 1544
1536 1536 1534 1533 1531 1527 1524 1522 1519 1515 1511 1508 1508 1511 1508 1508 1510 1513 1515 1516 1515 1514 1513 1512 1511 1510 1510 1514 1514 1516 1518 1518 1518 1517 1518 1518 1526 1526 1534 1521 1527 1530 1530 1530 1532 1554 1539
1535 1533 1532 1531 1529 1528 1525 1521 1518 1515 1513 1511 1510 1514 1515 1518 1515 1513 1513 1513 1515 1516 1514 1514 1513 1513 1514 1515 1515 1516 1517 1518 1518 1518 1519 1520 1524 1528 1525 1523 1521 1520 1521 1527 1532 1523 1524
1532 1531 1530 1529 1528 1526 1524 1522 1519 1516 1514 1513 1512 1514 1514 1514 1516 1516 1515 1513 1513 1514 1515 1515 1515 1514 1514 1515 1516 1517 1517 1519 1517 1520 1520 1522 1525 1526 1524 1519 1524 1523 1519 1519 1516 1514 1517
1528 1528 1528 1527 1526 1524 1522 1521 1519 1516 1515 1513 1514 1513 1514 1515 1515 1518 1518 1516 1514 1513 1514 1513 1513 1514 1513 1514 1514 1514 1515 1516 1517 1519 1522 1524 1527 1532 1524 1524 1521 1521 1505 1508 1508 1507 1506
1526 1524 1525 1525 1524 1523 1521 1519 1518 1516 1514 1514 1513 1513 1513 1516 1515 1514 1513 1514 1514 1515 1516 1515 1515 1514 1513 1512 1512 1513 1514 1514 1515 1516 1517 1524 1526 1531 1536 1526 1534 1499 1497 1498 1502 1500 1501
1523 1521 1521 1522 1523 1521 1520 1518 1517 1515 1514 1513 1512 1512 1512 1514 1513 1512 1512 1512 1513 1514 1515 1514 1514 1515 1515 1515 1517 1515 1516 1513 1514 1516 1516 1517 1523 1527 1526 1533 1514 1494 1498 1498 1498 1499 1501
1520 1518 1517 1517 1520 1520 1518 1516 1515 1514 1513 1512 1512 1511 1511 1511 1510 1510 1510 1510 1512 1513 1514 1512 1513 1513 1514 1515 1517 1516 1516 1511 1517 1519 1519 1519 1519 1523 1532 1526 1514 1494 1495 1495 1496 1505 1500
1516 1515 1515 1513 1514 1516 1516 1514 1513 1512 1511 1511 1511 1510 1510 1510 1507 1508 1508 1509 1509 1509 1511 1511 1510 1511 1512 1517 1520 1522 1517 1508 1511 1515 1521 1524 1526 1527 1529 1530 1511 1494 1494 1494 1503 1500 1498
1511 1511 1510 1510 1510 1510 1513 1512 1510 1509 1509 1508 1508 1508 1509 1507 1506 1506 1506 1506 1507 1507 1507 1508 1510 1510 1513 1516 1518 1516 1518 1510 1509 1509 1513 1515 1523 1526 1528 1528 1518 1492 1495 1498 1496 1496 1498
1505 1505 1507 1504 1506 1506 1507 1509 1508 1506 1505 1504 1505 1506 1505 1505 1504 1503 1503 1503 1504 1505 1506 1505 1505 1503 1505 1511 1514 1513 1511 1512 1511 1510 1504 1509 1503 1506 1506 1501 1493 1493 1493 1493 1494 1495 1498